Overview Statistics Trail Chart Weather Telemetry Raw packets
 

This is the latest recevied weather packets stored in our database for station/object K5BOU. If no packets are shown the sender has not sent any weather packets the latest 10 day(s).

<< 96 97 98 99 100 101 102 >>
Time Temp. Humidity Pressure Rain* Wind** Luminosity Snow
1787945165 37.22° C 57% 1013.8 hPa 0 mm - 709 W/m² -
1787944863 36.67° C 59% 1014.1 hPa 0 mm - 699 W/m² -
1787944563 36.67° C 60% 1014.1 hPa 0 mm - 706 W/m² -
1787944259 36.11° C 63% 1013.9 hPa 0 mm - 702 W/m² -
1787943958 36.67° C 61% 1014 hPa 0 mm - 702 W/m² -
1787943655 36.67° C 62% 1014.1 hPa 0 mm - 716 W/m² -
1787943354 36.67° C 61% 1014.2 hPa 0 mm - 701 W/m² -
1787943049 36.11° C 63% 1014.8 hPa 0 mm - 691 W/m² -
1787942744 35° C 64% 1014.4 hPa 0 mm - 726 W/m² -
1787942439 35° C 63% 1014.7 hPa 0 mm - 199 W/m² -
1787942138 35.56° C 64% 1014.5 hPa 0 mm - 769 W/m² -
1787941834 36.11° C 62% 1014.7 hPa 0 mm - 777 W/m² -
1787941533 36.11° C 63% 1014.9 hPa 0 mm - 763 W/m² -
1787941228 36.11° C 63% 1014.8 hPa 0 mm - 769 W/m² -
1787940922 36.11° C 65% 1014.9 hPa 0 mm - 761 W/m² -
1787940621 36.11° C 63% 1015 hPa 0 mm - 734 W/m² -
1787940315 36.11° C 65% 1015.1 hPa 0 mm - 718 W/m² -
1787940014 36.11° C 64% 1015 hPa 0 mm - 734 W/m² -
1787939708 35.56° C 63% 1015.1 hPa 0 mm - 749 W/m² -
1787939408 35° C 64% 1015.1 hPa 0 mm - 731 W/m² -
1787939103 36.11° C 62% 1015.2 hPa 0 mm - 726 W/m² -
1787938802 35.56° C 63% 1015.2 hPa 0 mm - 741 W/m² -
1787938497 35.56° C 66% 1015.3 hPa 0 mm - 736 W/m² -
1787938193 35.56° C 63% 1015.3 hPa 0 mm - 742 W/m² -
1787937888 35.56° C 64% 1015.4 hPa 0 mm - 748 W/m² -

* Rain latest hour (hover to see other rain measurements)
** Current wind speed in m/s (hover to see current wind gust speed)